Location: Condor
(52.3263°N, 114.5541°W)
Time: 01:16:26
(UTC+00:00)

SO-50 - Pass Details

Date: 10 December 2023
Orbit: 608 x 661 km, 64.6° (Epoch: 28 February)

Event Time Altitude Azimuth Distance (km) Brightness Sun altitude
Exits shadow 13:16:41 19° 347° (NNW) 1,528 ? -20.1°
Maximum altitude 13:16:49 19° 350° (N) 1,527 ? -20.0°
Drops below altitude 10° 13:20:07 10° 36° (NE) 2,029 ? -19.6°
Sets 13:23:00 0° 54° (NE) 2,927 ? -19.1°
